This is the latest recevied weather packets stored in our database for station/object KJ4UBX-11. If no packets are shown the sender has not sent any weather packets the latest 10 day(s).
| Time | Temp. | Humidity | Pressure | Rain* | Wind** | Luminosity | Snow |
|---|---|---|---|---|---|---|---|
| 1778127757 | 15.56° C | 100% | 1003.4 hPa | - | - | - | - |
| 1778127175 | 15° C | 99% | 1003.2 hPa | - | - | - | - |
| 1778126592 | 15.56° C | 99% | 1002.9 hPa | - | - | - | - |
| 1778126009 | 15.56° C | 99% | 1002.7 hPa | - | - | - | - |
| 1778125425 | 15.56° C | 99% | 1002.5 hPa | - | - | - | - |
| 1778124842 | 15.56° C | 99% | 1002.6 hPa | - | - | - | - |
| 1778124259 | 15.56° C | 99% | 1002.5 hPa | - | - | - | - |
| 1778123676 | 15.56° C | 99% | 1002.5 hPa | - | - | - | - |
| 1778123091 | 15° C | 100% | 1002.6 hPa | - | - | - | - |
| 1778122508 | 15° C | 100% | 1002.6 hPa | - | - | - | - |
| 1778121925 | 15° C | 100% | 1002.7 hPa | - | - | - | - |
| 1778121342 | 15° C | 100% | 1002.8 hPa | - | - | - | - |
| 1778120758 | 15° C | 97% | 1002.9 hPa | - | - | - | - |
| 1778120175 | 15° C | 92% | 1003.1 hPa | - | - | - | - |
| 1778119591 | 15° C | 98% | 1003.1 hPa | - | - | - | - |
| 1778119009 | 15° C | 92% | 1003.1 hPa | - | - | - | - |
| 1778118426 | 15° C | 98% | 1003.4 hPa | - | - | - | - |
| 1778117842 | 15° C | 92% | 1003.5 hPa | - | - | - | - |
| 1778117258 | 14.44° C | 100% | 1003.5 hPa | - | - | - | - |
| 1778116676 | 15° C | 96% | 1003.7 hPa | - | - | - | - |
| 1778116092 | 15° C | 99% | 1003.6 hPa | - | - | - | - |
| 1778115510 | 15° C | 97% | 1003.7 hPa | - | - | - | - |
| 1778114343 | 14.44° C | 100% | 1003.7 hPa | - | - | - | - |
| 1778113759 | 14.44° C | 100% | 1003.8 hPa | - | - | - | - |
| 1778113177 | 15° C | 100% | 1003.8 hPa | - | - | - | - |
* Rain since midnight (hover to see other rain measurements)
** Current wind speed in m/s (hover to see current wind gust speed)